Regional Weather Roundup
Issued by NWS Green Bay, WI

Home | Current Version | Previous Version | Graphics & Text | Print | Product List | Glossary Off
Versions: 1 2 3 4 5 6 7 8 9 10 11 12 13 14 15 16 17 18 19 20 21 22 23 24 25 26 27 28 29 30 31 32 33 34 35 36 37 38 39 40 41 42 43 44 45 46 47 48 49 50

995
ASUS43 KGRB 220200
RWRGRB

NORTH-CENTRAL AND NORTHEAST WISCONSIN REGIONAL WEATHER ROUNDUP
NATIONAL WEATHER SERVICE GREEN BAY WI
900 PM CDT MON AUG 21 2017

WIZ005-009-010>012-018-019-220300-
NORTH CENTRAL WISCONSIN

CITY           SKY/WX    TMP DP  RH WIND       PRES   REMARKS
IRONWOOD       CLOUDY    67  62  84 S3        29.83F
MANITOWISH WTR NOT AVBL
ARBOR VITAE    NOT AVBL
EAGLE RIVER    NOT AVBL
LAND O LAKES   NOT AVBL
RHINELANDER    CLOUDY    68  67  96 W6        29.87F
PHILLIPS       NOT AVBL
ANTIGO         NOT AVBL
TOMAHAWK       NOT AVBL
MERRILL        NOT AVBL
$$

WIZ013-073-220300-
NORTHEAST WISCONSIN

CITY           SKY/WX    TMP DP  RH WIND       PRES   REMARKS
IRON MOUNTAIN  CLOUDY    67  64  90 NE3       29.83F
MARINETTE      PTCLDY    74  69  85 S8        29.84F
$$

WIZ017-030-035>037-045-220300-
CENTRAL WISCONSIN

CITY           SKY/WX    TMP DP  RH WIND       PRES   REMARKS
MEDFORD        NOT AVBL
WAUSAU         CLOUDY    70  64  81 S8        29.83F
MOSINEE        CLEAR     70  64  83 S5        29.86F
MARSHFIELD     CLOUDY    66  63  90 NW5       29.83F
WISC RAPIDS    LGT RAIN  68  65  90 S7        29.85F
STEVENS POINT  NOT AVBL
WAUPACA        NOT AVBL
SHAWANO        NOT AVBL
CLINTONVILLE   NOT AVBL
WAUTOMA        LGT RAIN  72  66  81 S5        29.89F
$$

WIZ038-039-048-051-220300-
FOX VALLEY

CITY           SKY/WX    TMP DP  RH WIND       PRES   REMARKS
NWS GREEN BAY  MOCLDY    74  71  91 S6        29.87F
APPLETON       MOCLDY    72  66  83 SW6       29.88F
OSHKOSH        CLOUDY    72  69  90 S5        29.89F
FOND DU LAC    CLOUDY    72  67  84 S5        29.90F
$$

WIZ022-050-052-220300-
EAST CENTRAL WISCONSIN

CITY           SKY/WX    TMP DP  RH WIND       PRES   REMARKS
EPHRAIM        NOT AVBL
WASHINGTON ISL NOT AVBL
STURGEON BAY   MOCLDY    71  66  84 S9        29.88F
MANITOWOC      NOT AVBL
SHEBOYGAN      CLOUDY    72  72 100 S5        29.89F FOG
$$

LMZ563-521-522-541>543-220300-
LAKESHORE

STATION/POSITION TIME  TEMP    WIND        PRES    VSBY  WAVE
                       AIR SEA DIR/SP/G                  HT/PER
                 (UTC) (F)     (DEG/KT/KT) (MB)    (MI)  (FT/S)
SHEBOYGAN LKSHOR 0100   72     180/ 12/ 13 1012.7F
KEWAUNEE LKSHORE 0130   68     180/  8/  9 1011.4F
NORTHPORT PIER   0140   71     170/  4/ 11 1011.2F
N MID LAKE BUOY  0050   70 69  190/  8/ 10 1012.1F         1
S GREEN BAY BUOY 0130   74 73  180/ 14/ 17 1011.1F
SISTER BAY LKSHO 0118   72     170/ 13/ 15   N/A
MENOMINEE LKSHOR 0130   74     170/  8/ 10 1010.9F
$$




USA.gov is the U.S. government's official web portal to all federal, state and local government web resources and services.